Location: Banios
(43.0451°N, 0.2335°E)
Time: 11:48:25
(UTC+00:00)

Envisat - Pass Details

Date: 17 December 2021
Orbit: 764 x 766 km, 98.2° (Epoch: 20 January)

Event Time Altitude Azimuth Distance (km) Brightness Sun altitude
Rises 17:03:53 0° 199° (SSW) 3,218 7.0 -7.0°
Reaches altitude 10° 17:06:36 10° 213° (SSW) 2,297 6.5 -7.4°
Maximum altitude 17:10:40 24° 267° (W) 1,540 5.6 -8.1°
Drops below altitude 10° 17:14:46 10° 320° (NW) 2,311 5.7 -8.8°
Sets 17:17:31 0° 335° (NNW) 3,242 6.3 -9.2°
